Weather History for Fayetteville, AR

Change the Weather History Date:

Tuesday, March 12, 2013

  Actual Average Record
Temperature  
Mean Temperature 41 °F 47 °F  
Max Temperature 56 °F 59 °F 88 °F (1967)
Min Temperature 26 °F 35 °F 13 °F (1998)
Degree Days  
Heating Degree Days 24 18  
Month to date heating degree days 280 236  
Since 1 July heating degree days 3351 3539  
Cooling Degree Days 0 0  
Month to date cooling degree days 0 0  
Year to date cooling degree days 0 0  
Moisture  
Dew Point 27 °F    
Average Humidity 61    
Maximum Humidity 92    
Minimum Humidity 30    
Precipitation  
Precipitation 0.00 in 0.12 in 1.45 in (1999)
Month to date precipitation 1.86 1.44  
Year to date precipitation 7.71 7.09  
Sea Level Pressure  
Sea Level Pressure 30.20 in    
Wind  
Wind Speed 7 mph (WNW)    
Max Wind Speed 17 mph    
Max Gust Speed 24 mph    
Visibility 10 miles    
Events      
T = Trace of Precipitation, MM = Missing Value Source: NWS Daily Summary

Daily Weather History Graph

Daily Weather History Graph

Search for Another Location

Airport:

Trip Planner

Search our weather history database for the weather conditions in past years. The results will help you decide how hot, cold, wet, or windy it might be!

Date:

Astronomy

Mar. 12, 2013 Rise Set
Actual Time 7:31 AM CDT 7:21 PM CDT
Civil Twilight 7:05 AM CDT 7:47 PM CDT
Nautical Twilight 6:36 AM CDT 8:17 PM CDT
Astronomical Twilight 6:06 AM CDT 8:47 PM CDT
Moon 7:41 AM CDT (3/12) 8:33 PM CDT (3/12)
Length of Visible Light 12h 41m
Length of Day
11h 50m
New Moon, 1% of the Moon is Illuminated
Mar 12
New Moon
Mar 19
First Quarter
Mar 27
Full
Apr 2
Last Quarter
Apr 10
New

Hourly Weather History & Observations

Time (CDT) Temp. Windchill Dew Point Humidity Pressure Visibility Wind Dir Wind Speed Gust Speed Precip Events Conditions
12:53 AM 26.1 °F - 24.1 °F 92% 30.09 in 10.0 mi Calm Calm - N/A   Clear
1:53 AM 27.0 °F - 25.0 °F 92% 30.08 in 9.0 mi Calm Calm - N/A   Clear
2:53 AM 26.1 °F - 25.0 °F 96% 30.09 in 10.0 mi Calm Calm - N/A   Clear
3:53 AM 28.0 °F - 26.1 °F 92% 30.07 in 10.0 mi Calm Calm - N/A   Scattered Clouds
4:53 AM 30.0 °F 25.2 °F 27.0 °F 88% 30.10 in 10.0 mi South 4.6 mph - N/A   Mostly Cloudy
5:53 AM 30.0 °F - 28.0 °F 92% 30.15 in 10.0 mi Calm Calm - N/A   Overcast
6:53 AM 30.9 °F - 28.0 °F 89% 30.17 in 10.0 mi Calm Calm - N/A   Overcast
7:53 AM 33.1 °F 27.7 °F 28.9 °F 85% 30.17 in 10.0 mi SW 5.8 mph - N/A   Overcast
8:53 AM 35.1 °F 31.0 °F 30.0 °F 82% 30.21 in 10.0 mi South 4.6 mph - N/A   Overcast
9:53 AM 41.0 °F 38.0 °F 32.0 °F 70% 30.22 in 10.0 mi South 4.6 mph - N/A   Overcast
10:53 AM 46.0 °F 44.8 °F 30.9 °F 56% 30.24 in 10.0 mi Variable 3.5 mph - N/A   Overcast
11:53 AM 50.0 °F - 30.0 °F 46% 30.23 in 10.0 mi West 8.1 mph - N/A   Mostly Cloudy
12:53 PM 52.0 °F - 27.0 °F 38% 30.24 in 10.0 mi NW 11.5 mph - N/A   Mostly Cloudy
1:53 PM 54.0 °F - 27.0 °F 35% 30.21 in 10.0 mi WNW 10.4 mph 17.3 mph N/A   Clear
2:53 PM 55.9 °F - 25.0 °F 30% 30.20 in 10.0 mi NNW 15.0 mph 18.4 mph N/A   Clear
3:53 PM 55.0 °F - 26.1 °F 33% 30.19 in 10.0 mi WNW 15.0 mph 20.7 mph N/A   Clear
4:53 PM 55.0 °F - 27.0 °F 34% 30.19 in 10.0 mi WNW 10.4 mph 19.6 mph N/A   Clear
5:53 PM 53.1 °F - 26.1 °F 35% 30.20 in 10.0 mi NW 9.2 mph - N/A   Clear
6:53 PM 50.0 °F - 27.0 °F 41% 30.21 in 10.0 mi NNW 11.5 mph - N/A   Clear
7:53 PM 46.9 °F - 28.0 °F 48% 30.24 in 10.0 mi NW 8.1 mph - N/A   Partly Cloudy
8:53 PM 46.0 °F 41.9 °F 28.9 °F 51% 30.28 in 10.0 mi NNW 8.1 mph - N/A   Clear
9:53 PM 42.1 °F 37.7 °F 25.0 °F 51% 30.30 in 10.0 mi NNW 6.9 mph - N/A   Clear
10:53 PM 39.9 °F 34.5 °F 21.9 °F 49% 30.32 in 10.0 mi NNW 8.1 mph - N/A   Clear
11:53 PM 39.0 °F 34.0 °F 19.0 °F 45% 30.33 in 10.0 mi North 6.9 mph - N/A   Clear